Regional Weather Roundup
Issued by NWS Jackson, KY

Home | Current Version | Previous Version | Text Only | Print | Product List | Glossary Off
Versions: 1 2 3 4 5 6 7 8 9 10 11 12 13 14 15 16 17 18 19 20 21 22 23 24 25 26 27 28 29 30 31 32 33 34 35 36 37 38 39 40 41 42 43 44 45 46 47 48 49 50

238
ASUS43 KJKL 171310
RWRJKL

EAST KENTUCKY HOURLY WEATHER ROUNDUP
NATIONAL WEATHER SERVICE JACKSON KY
900 AM EDT THU AUG 17 2017

NOTE: "FAIR" INDICATES FEW OR NO CLOUDS BELOW 12,000 FEET WITH
NO SIGNIFICANT WEATHER AND/OR OBSTRUCTIONS TO VISIBILITY.

* THESE REPORTS ARE NOT UNDER NWS QUALITY CONTROL AND MAY NOT
  REPORT WEATHER SUCH AS PRECIPITATION AND FOG.

KYZ079-080-083-085-087-088-110-112-115-119-120-171400
...EASTERN KENTUCKY...

CITY           SKY/WX    TMP DP  RH WIND       PRES   REMARKS
JACKSON        MOSUNNY   74  71  91 CALM      30.06S
LONDON         PTSUNNY   76  72  87 SW8       30.06S
SOMERSET*      PTSUNNY   73  73 100 S5        30.07R
MONTICELLO*    MOSUNNY   81  76  84 NW9       30.07S
WILLIAMSBURG*  MOSUNNY   75  75 100 CALM      30.07S
MIDDLESBORO*   CLOUDY    74  73  99 CALM      30.10R
HARLAN APT*    CLOUDY    70  68  94 CALM      30.11R
PIKE CO APT*     N/A     73  73 100 SE5       30.08R
BIG SANDY APT* SUNNY     75  74  96 CALM      30.06R
MOREHEAD APT*  PTSUNNY   77  73  88 VRB7G13   30.04S
$$

KYZ035-036-041-042-044-050-067-078-099-171400
...CENTRAL KENTUCKY...

CITY           SKY/WX    TMP DP  RH WIND       PRES   REMARKS
MT STERLING*   CLOUDY    77  73  88 SW6       30.04S
FLEMING/MASON* CLOUDY    78  74  88 SW7       30.02S
DANVILLE*      CLOUDY    77  73  88 SW6       30.05R
LEXINGTON      SUNNY     78  73  84 SW13      30.02R
FRANKFORT      PTSUNNY   78  74  87 SW8       29.99R
LOUISVILLE     PTSUNNY   81  74  79 S9        29.96F
LEBANON*       PTSUNNY   77  73  88 S10       30.02S
GLASGOW*       MOSUNNY   77  75  95 SW6       30.02S
BOWLING GREEN  SUNNY     79  76  90 S10       30.00S
$$

KYZ091>093-OHZ055-061-077-WVZ005-015-034-035-042-171400
...SOUTHERN OHIO/WEST VIRGINIA...

CITY           SKY/WX    TMP DP  RH WIND       PRES   REMARKS
COVINGTON      MOSUNNY   77  76  96 SW9       29.97S
COLUMBUS       CLOUDY    74  74 100 S7        29.97S FOG
DAYTON         MOSUNNY   76  72  87 S14       29.97R
WILMINGTON     MOSUNNY   77  74  90 SW10      29.98R
HUNTINGTON     SUNNY     76  71  85 SW5       30.02R
CHARLESTON     MOSUNNY   72  69  90 CALM      30.04S
PINEVILLE*     PTSUNNY   71  69  93 MISG      30.15S
BECKLEY        MOSUNNY   73  68  84 SW5       30.14R
BLUEFIELD      MOSUNNY   71  66  84 W8        30.17R
LOGAN CO APT*  PTSUNNY   75  72  88 CALM      30.08S
$$

VAZ002-007-008-TNZ017-027-036-066-071-171400
...SOUTHWEST VIRGINIA/EAST TENNESSEE...

CITY           SKY/WX    TMP DP  RH WIND       PRES   REMARKS
WISE*          CLOUDY    73  73 100 SW3       30.17R
JONESVILLE*    CLOUDY    72  70  94 CALM      30.13S
ABINGDON*      MOSUNNY   74  74 100 CALM      30.15R
BRISTOL        CLOUDY    71  71 100 CALM      30.12R FOG
MORRISTOWN*    CLOUDY    75  73  94 CALM      30.10R
SEVIERVILLE*   CLOUDY    73  68  83 VRB3      30.08S
KNOXVILLE      CLOUDY    74  71  91 SW5       30.08R
OAK RIDGE      CLOUDY    76  73  91 SW3       30.10R
CROSSVILLE     PTSUNNY   74  71  91 VRB3      30.13S
NASHVILLE      MOSUNNY   79  73  82 S5        30.04R
$$

...KEY TO REMARKS...
VSB - VISIBILITY IN MILES
WCI - WIND CHILL INDEX
HX  - HEAT INDEX

$$




USA.gov is the U.S. government's official web portal to all federal, state and local government web resources and services.